Regional Weather Roundup
Issued by NWS

Home | Current Version | Previous Version | Graphics & Text | Print | Product List | Glossary On
Versions: 1 2 3 4 5 6 7 8 9 10 11 12 13 14 15 16 17 18 19 20 21 22 23 24 25 26 27 28 29 30 31 32 33 34 35 36 37 38 39 40 41 42 43 44 45 46 47 48 49 50
000
ASUS43 KLOT 231300
RWRIL

ILLINOIS REGIONAL WEATHER ROUNDUP
NATIONAL WEATHER SERVICE CHICAGO/ROMEOVILLE IL
800 AM CDT TUE SEP 23 2014

NOTE: "FAIR" INDICATES FEW OR NO CLOUDS BELOW 12,000 FEET WITH NO
SIGNIFICANT WEATHER AND/OR OBSTRUCTIONS TO VISIBILITY.

* THESE STATIONS ARE NOT UNDER NWS QUALITY CONTROL. THEY ALSO MAY NOT
  REPORT WEATHER SUCH AS PRECIPITATION OR FOG.

ILZ001-002-007-009-015-016-024-231400-
NORTHWEST ILLINOIS

CITY           SKY/WX    TMP DP  RH WIND       PRES   REMARKS
MOLINE         SUNNY     49  46  90 CALM      30.31R
STERLING*      SUNNY     48  43  81 CALM      30.32S
$$

ILZ003-004-008-010-011-017-018-231400-
NORTH CENTRAL ILLINOIS

CITY           SKY/WX    TMP DP  RH WIND       PRES   REMARKS
ROCKFORD       MOSUNNY   48  44  86 S3        30.35R
$$

ILZ005-006-012>014-019>023-231400-
NORTHEAST ILLINOIS

CITY           SKY/WX    TMP DP  RH WIND       PRES   REMARKS
CHICAGO-OHARE  SUNNY     54  43  66 SW5       30.33R
CHICAGO-MIDWAY SUNNY     55  46  71 SW6       30.33R
AURORA         SUNNY     47  44  90 CALM      30.34R FOG
WAUKEGAN       SUNNY     51  46  83 SW5       30.31R
DUPAGE AIRPORT SUNNY     51  46  83 CALM      30.33R
WHEELING       SUNNY     53  45  74 CALM      30.34R
NORTHERLY ISL    N/A     56  42  59 SW12        N/A
$$

LMZ740>746-231400-
SOUTHERN LAKE MICHIGAN

STATION/POSITION SKY/WX   TEMP    WIND        PRES    VSBY  WAVE
                          AIR SEA DIR/SP/G                  HT/PER
                          (F)     (DEG/KT/KT) (MB)    (MI)  (FT/S)
SOUTHERN BUOY              60 62  230/ 10/ 12 1026.2R         2/ 4
WAUKEGAN HARBOR            54     260/ 11/ 13   N/A
BURNHAM HARBOR             56     230/  8/ 11   N/A
CALUMET HARBOR             53     220/  4/  6 1025.6R
MICHIGAN CITY 6N           56 63  200/  8/ 10   N/A           1/ 2
ST. JOSEPH                 58 64  180/  8/ 10   N/A           1/ 2
$$

ILZ025>027-034>036-040-047-049-050-058-095>099-231400-
WEST-CENTRAL ILLINOIS

CITY           SKY/WX    TMP DP  RH WIND       PRES   REMARKS
QUINCY         MOSUNNY   53  45  74 SE6       30.30R
MACOMB*        SUNNY     44  44 100 CALM      30.33S
$$

ILZ028>032-037-038-041>044-048-051>054-059>061-231400-
CENTRAL ILLINOIS

CITY           SKY/WX    TMP DP  RH WIND       PRES   REMARKS
DECATUR        SUNNY     49  46  90 CALM      30.34R
PEORIA         SUNNY     54  47  77 CALM      30.33R
SPRINGFIELD    SUNNY     52  46  80 CALM      30.33R
TAYLORVILLE    NOT AVBL
$$

ILZ033-039-045-046-055>057-062-063-231400-
EAST-CENTRAL ILLINOIS

CITY           SKY/WX    TMP DP  RH WIND       PRES   REMARKS
CHAMPAIGN      SUNNY     52  48  86 SE8       30.34R
MATTOON        SUNNY     51  46  83 SE3       30.33R
$$

ILZ079-100>102-231400-
SOUTHWEST ILLINOIS

CITY           SKY/WX    TMP DP  RH WIND       PRES   REMARKS
ALTON          MOSUNNY   46  46 100 CALM      30.31S
BELLEVILLE     SUNNY     51  51  99 CALM      30.31R
CAHOKIA*       SUNNY     52  50  93 CALM      30.32R
$$

ILZ064>066-069>071-074>076-080>082-084>086-088>090-092>094-231400-
SOUTH-CENTRAL ILLINOIS

CITY           SKY/WX    TMP DP  RH WIND       PRES   REMARKS
CARBONDALE     FOG       47  45  93 CALM      30.31R VSB 3/4
MARION         MOSUNNY   48  48 100 MISG      30.32R
MT. VERNON     SUNNY     48  45  87 N3        30.32R
$$

ILZ067-068-072-073-078-083-087-091-231400-
SOUTHEAST ILLINOIS

CITY           SKY/WX    TMP DP  RH WIND       PRES   REMARKS
LAWRENCEVILLE  SUNNY     51  49  92 NE3       30.34R
$$

ABBREVIATIONS USED IN REMARKS
   TC - TEMPERATURE IN CELSIUS
  WCI - WIND CHILL INDEX
   HX - HEAT INDEX
  VSB - VISIBILITY
$$



USA.gov is the U.S. government's official web portal to all federal, state and local government web resources and services.